Temp
62 63 63 63 63 62 62 62 63 63 62 62 62 62 62 61 61 54 47 56 60 67 65 57 54 54 52 47 50 47 35 30 36 39 43 50 48 51 50 51 47 45 46 49 49
63 63 63 62 62 62 62 62 62 62 62 62 61 61 61 61 52 47 59 65 68 67 56 52 49 51 44 45 46 41 32 37 43 45 45 52 49 51 49 48 45 42 45 48 49
62 62 62 62 61 61 61 61 61 61 61 62 61 61 60 57 45 47 65 67 67 64 55 54 52 49 41 43 43 41 35 43 47 50 51 50 49 50 47 44 47 44 41 43 44
62 61 61 61 61 61 61 61 61 61 61 61 60 60 60 51 36 51 65 64 65 58 54 51 48 42 39 38 44 37 43 45 48 49 49 46 49 47 45 43 47 48 44 42 42
61 61 60 60 60 60 60 60 60 60 60 61 60 59 51 40 43 56 63 61 55 53 50 47 44 42 37 39 41 38 41 46 48 48 49 49 45 44 42 43 44 45 44 40 40
60 60 60 59 59 59 59 60 60 60 59 59 59 59 45 36 53 57 56 53 53 50 48 47 45 46 41 41 40 41 44 46 45 47 48 46 43 46 42 44 43 43 40 40 40
60 59 59 59 59 59 59 60 60 59 59 59 59 55 44 43 53 52 54 51 52 50 46 49 49 44 42 39 44 43 38 39 41 45 45 47 39 39 42 44 42 41 41 40 41
59 58 58 58 59 58 59 59 59 58 58 59 60 49 39 54 50 53 51 51 52 52 50 50 49 46 42 43 41 37 34 29 38 42 42 45 32 40 41 41 39 40 40 40 40
58 58 57 57 58 58 58 59 59 59 59 59 48 42 39 57 49 51 49 48 49 50 49 57 47 40 39 32 26 28 23 25 32 41 40 39 32 35 39 40 37 38 37 38 37
58 57 57 57 58 58 58 59 58 56 56 57 54 38 46 44 49 51 50 50 46 45 44 41 36 30 29 26 17 23 24 29 29 35 35 33 27 31 34 32 29 30 32 34 36
57 56 56 57 57 58 51 46 42 40 44 38 41 42 45 50 51 49 50 47 45 40 30 34 28 24 26 30 28 26 24 26 28 35 32 28 25 26 30 29 27 27 28 30 34
56 56 56 57 57 57 46 39 37 39 34 45 46 45 49 47 41 45 50 38 37 31 32 28 23 31 34 34 31 30 28 26 29 34 29 24 20 25 26 26 26 26 26 27 30
56 56 57 57 56 46 41 39 45 43 33 41 45 44 45 46 39 40 44 38 34 31 30 25 29 37 35 31 30 28 26 27 28 31 28 26 20 23 26 25 27 27 27 28 27
56 56 56 57 48 42 38 45 45 43 26 34 39 43 46 44 37 46 45 38 34 29 30 28 33 33 30 29 28 27 29 30 30 28 18 25 12 19 20 20 20 22 23 24 25
55 56 56 54 42 39 43 45 43 39 7 36 37 48 44 38 38 39 42 39 29 30 28 24 27 28 27 28 30 27 31 28 26 22 24 25 19 16 20 15 17 16 24 24 24
55 55 55 47 41 42 44 42 40 26 6 29 35 32 32 35 36 38 34 36 34 30 29 26 31 28 26 31 30 31 29 28 26 17 6 18 17 13 17 10 16 17 22 24 22
55 55 51 49 40 43 42 37 23 12 30 26 25 31 29 29 31 30 26 20 16 12 19 24 24 26 28 27 29 25 21 10 12 11 6 15 17 6 15 17 19 16 19 22 21
54 54 49 49 43 42 37 29 12 24 21 30 28 28 25 27 27 25 22 14 21 17 15 15 10 16 22 21 22 22 17 13 6 3 9 17 12 12 19 22 21 26 22 23 24
52 41 42 44 44 39 32 16 16 21 26 24 26 23 22 26 24 21 16 11 16 18 4 8 16 25 26 26 24 17 17 20 17 17 11 10 12 19 21 20 21 23 24 19 25
38 40 42 44 41 36 26 23 23 29 28 27 19 21 15 19 19 17 12 19 20 23 20 12 5 21 26 25 23 22 18 15 16 10 8 3 -3 2 9 14 19 19 17 20 21
38 36 43 43 39 30 19 20 26 30 29 24 20 19 18 16 15 14 8 18 22 22 22 15 4 13 23 10 8 14 16 14 12 15 4 -2 -1 3 9 14 17 18 22 20 20
33 30 44 40 27 22 20 25 32 27 28 27 25 22 19 18 16 17 17 20 24 23 17 20 4 5 7 11 10 8 10 12 9 3 8 6 -0 15 17 17 20 18 22 16 18
28 28 40 37 21 20 24 26 27 25 25 24 23 24 22 18 13 19 21 26 26 24 16 22 9 -2 3 8 13 2 -0 -1 5 10 4 5 -1 16 17 16 17 15 13 12 18
28 24 28 27 23 22 21 24 23 27 26 27 25 24 20 17 20 15 20 24 27 26 32 22 10 4 -2 1 7 2 4 -8 -4 -1 -0 -0 2 12 12 14 18 14 13 9 14
27 22 23 19 25 22 22 24 23 22 25 25 23 22 15 7 15 14 19 21 25 27 23 16 5 11 8 11 13 10 10 1 -5 -8 -1 -1 5 10 12 13 15 15 19 22 22
26 25 25 22 24 21 23 21 22 23 22 19 18 21 19 9 9 2 10 16 14 19 17 17 7 13 10 18 16 13 15 13 9 -4 -3 -2 3 7 12 9 9 15 19 22 23
30 30 28 26 22 17 17 21 24 24 25 26 22 18 18 20 19 18 19 18 14 14 12 7 7 8 3 16 14 7 8 9 5 0 4 3 8 9 9 13 11 10 8 17 20
MSLP
1017.00 1016.55 1016.13 1015.77 1015.43 1015.18 1014.87 1014.58 1014.36 1014.04 1014.00 1014.00 1013.96 1013.94 1013.74 1013.63 1013.49 1013.74 1013.66 1012.72 1012.57 1012.44 1012.71 1013.07 1013.30 1013.28 1013.50 1013.88 1014.00 1014.30 1015.01 1014.32 1013.47 1012.95 1011.97 1010.81 1010.80 1010.71 1010.94 1011.49 1012.48 1013.28 1013.50 1013.72 1014.61
1016.67 1016.30 1015.99 1015.61 1015.28 1015.00 1014.66 1014.42 1014.15 1013.94 1013.80 1013.69 1013.68 1013.72 1013.64 1013.59 1013.67 1013.46 1012.65 1012.28 1011.99 1012.34 1012.88 1013.09 1013.44 1013.60 1013.91 1013.84 1013.87 1014.24 1014.43 1013.59 1012.66 1012.04 1011.27 1010.66 1010.54 1010.63 1011.27 1012.22 1013.44 1014.41 1014.64 1014.86 1015.43
1016.60 1016.18 1015.81 1015.50 1015.19 1014.92 1014.56 1014.34 1014.09 1013.89 1013.73 1013.51 1013.50 1013.63 1013.72 1013.73 1013.82 1012.69 1011.58 1011.96 1012.27 1012.51 1012.87 1013.09 1013.39 1013.79 1014.12 1013.84 1013.65 1013.60 1013.38 1012.91 1012.14 1011.42 1011.03 1010.82 1010.65 1010.55 1011.43 1012.55 1013.05 1014.13 1015.07 1015.64 1015.97
1016.49 1016.12 1015.80 1015.46 1015.15 1014.75 1014.45 1014.12 1013.99 1013.76 1013.59 1013.40 1013.50 1013.62 1013.73 1013.94 1013.81 1012.48 1012.19 1012.41 1012.58 1012.86 1013.07 1013.14 1013.48 1013.82 1014.08 1013.82 1013.33 1013.29 1012.62 1012.35 1011.99 1011.45 1011.05 1010.93 1011.00 1011.15 1011.95 1012.82 1013.06 1013.62 1015.05 1015.87 1016.55
1016.55 1016.08 1015.76 1015.40 1015.01 1014.66 1014.29 1014.00 1013.69 1013.51 1013.45 1013.40 1013.50 1013.63 1013.86 1013.91 1013.07 1012.45 1012.42 1012.56 1012.76 1012.90 1013.07 1013.22 1013.46 1013.67 1013.67 1013.42 1013.22 1012.90 1012.48 1012.02 1011.69 1011.58 1011.42 1011.16 1011.42 1011.80 1012.98 1013.79 1013.96 1014.59 1015.73 1016.43 1017.16
1016.50 1016.01 1015.67 1015.31 1014.90 1014.54 1014.16 1013.82 1013.48 1013.29 1013.33 1013.39 1013.54 1013.72 1013.95 1013.70 1012.47 1012.49 1012.61 1012.65 1012.74 1012.83 1012.86 1013.06 1013.06 1013.15 1013.27 1013.05 1013.03 1012.35 1012.21 1011.93 1011.85 1011.73 1011.69 1011.81 1012.11 1012.36 1013.86 1014.62 1015.34 1015.89 1016.56 1017.22 1017.63
1016.30 1015.89 1015.52 1015.00 1014.54 1014.24 1013.96 1013.64 1013.35 1013.10 1013.20 1013.33 1013.45 1013.80 1013.84 1013.08 1012.50 1012.51 1012.63 1012.54 1012.46 1012.57 1012.70 1012.70 1012.75 1013.02 1013.10 1012.98 1012.54 1012.35 1012.43 1012.15 1012.02 1011.81 1011.99 1012.19 1013.01 1013.64 1014.31 1015.05 1015.77 1016.50 1017.04 1017.66 1018.38
1016.33 1015.90 1015.48 1014.94 1014.53 1014.11 1013.81 1013.54 1013.34 1013.23 1013.27 1013.36 1013.44 1013.78 1013.48 1012.64 1012.56 1012.53 1012.47 1012.46 1012.37 1012.37 1012.47 1012.43 1012.48 1012.78 1013.11 1012.99 1012.76 1012.82 1012.90 1012.82 1012.21 1012.16 1012.29 1012.58 1014.12 1015.21 1015.57 1015.97 1016.82 1017.40 1017.92 1018.47 1019.08
1016.18 1015.63 1015.25 1014.82 1014.37 1013.97 1013.69 1013.42 1013.31 1013.32 1013.32 1013.35 1013.66 1013.74 1013.20 1012.60 1012.56 1012.45 1012.43 1012.49 1012.43 1012.38 1012.36 1012.37 1012.58 1013.01 1013.32 1013.79 1014.16 1013.78 1013.54 1013.27 1012.82 1012.68 1012.78 1013.67 1015.64 1017.06 1016.64 1017.16 1018.19 1018.61 1018.84 1019.18 1019.70
1015.99 1015.43 1014.91 1014.56 1014.19 1013.86 1013.50 1013.24 1013.33 1013.42 1013.45 1013.47 1013.54 1013.95 1013.06 1012.93 1012.63 1012.54 1012.42 1012.46 1012.58 1012.64 1012.74 1012.81 1013.34 1013.77 1014.18 1014.44 1014.37 1014.26 1014.06 1013.58 1013.37 1013.42 1013.85 1015.33 1017.67 1018.59 1019.02 1018.80 1019.83 1020.24 1020.28 1020.28 1020.20
1015.69 1015.19 1014.70 1014.36 1014.02 1013.54 1013.42 1013.56 1014.13 1014.18 1013.74 1013.65 1013.50 1013.22 1013.00 1012.90 1012.71 1012.86 1012.70 1012.66 1012.71 1013.05 1013.41 1013.56 1014.05 1014.38 1014.30 1014.27 1014.29 1014.19 1014.04 1013.79 1013.75 1013.95 1015.01 1016.94 1018.96 1020.31 1020.91 1020.63 1021.19 1021.52 1021.61 1021.55 1021.35
1015.70 1015.09 1014.61 1014.19 1013.90 1013.56 1013.80 1014.73 1015.18 1015.64 1014.69 1013.57 1013.33 1013.19 1012.98 1012.99 1013.18 1013.20 1013.08 1013.32 1013.30 1013.60 1013.83 1014.36 1014.25 1014.23 1014.20 1014.27 1014.43 1014.46 1014.33 1014.22 1014.44 1014.68 1015.81 1018.42 1020.42 1021.70 1022.15 1022.65 1022.94 1022.96 1022.87 1022.81 1022.53
1015.61 1015.06 1014.58 1014.10 1013.86 1014.25 1015.05 1015.53 1015.42 1015.47 1015.25 1014.10 1013.54 1013.33 1013.26 1013.32 1013.60 1013.70 1013.73 1013.78 1013.84 1014.08 1014.27 1014.60 1014.34 1014.21 1014.36 1014.51 1014.59 1014.50 1014.51 1014.52 1014.66 1015.68 1017.30 1018.54 1021.22 1022.22 1023.24 1023.73 1023.96 1024.06 1024.09 1023.89 1023.67
1015.44 1014.91 1014.55 1013.93 1014.28 1015.02 1015.43 1015.56 1015.45 1015.50 1015.46 1014.85 1013.95 1013.67 1013.55 1013.52 1014.09 1014.15 1014.27 1014.46 1014.41 1014.69 1014.79 1015.02 1014.85 1014.71 1014.81 1015.07 1015.20 1015.02 1014.78 1014.71 1015.13 1016.22 1017.64 1018.47 1021.18 1022.83 1023.87 1024.50 1024.82 1024.85 1024.72 1024.68 1024.41
1015.54 1015.10 1014.82 1014.26 1015.05 1015.34 1015.66 1015.47 1015.42 1015.72 1016.31 1015.52 1014.65 1014.13 1014.40 1014.67 1014.86 1015.02 1015.28 1014.90 1015.66 1015.88 1016.02 1016.20 1015.98 1015.92 1015.81 1015.88 1015.79 1015.55 1015.42 1015.66 1016.14 1017.00 1018.25 1019.22 1021.16 1023.12 1024.24 1025.24 1025.65 1025.52 1025.33 1025.25 1024.93
1015.51 1015.27 1014.90 1014.97 1015.41 1015.51 1015.34 1015.41 1015.80 1016.79 1017.18 1016.58 1015.98 1015.86 1015.96 1015.75 1015.83 1016.07 1016.44 1016.55 1016.85 1016.91 1016.92 1017.22 1017.14 1017.33 1017.26 1016.76 1016.48 1016.32 1016.49 1016.86 1017.47 1018.51 1019.60 1019.70 1021.29 1023.79 1024.92 1025.66 1026.20 1026.18 1025.97 1025.76 1025.41
1015.45 1015.11 1014.93 1015.10 1015.44 1015.34 1015.41 1016.02 1016.92 1017.79 1018.52 1018.46 1018.02 1017.55 1017.63 1017.41 1017.43 1017.86 1018.78 1019.27 1019.60 1019.33 1018.86 1018.50 1018.60 1018.54 1018.34 1017.84 1017.38 1017.35 1017.65 1018.66 1019.37 1019.97 1020.15 1020.53 1021.90 1024.31 1025.38 1025.99 1026.51 1026.65 1026.50 1026.16 1025.80
1014.96 1014.67 1014.86 1014.68 1014.72 1015.06 1015.70 1016.65 1018.11 1019.50 1019.77 1019.60 1019.08 1018.45 1018.53 1018.69 1018.89 1019.57 1020.19 1021.07 1021.15 1021.26 1021.05 1020.58 1020.31 1020.17 1019.83 1019.50 1019.08 1018.78 1018.98 1019.07 1019.48 1020.22 1020.86 1021.54 1023.35 1024.98 1025.89 1026.34 1026.59 1026.45 1026.63 1026.52 1025.98
1014.66 1015.03 1015.20 1014.84 1014.71 1015.17 1016.28 1018.10 1020.15 1020.53 1020.69 1020.49 1019.76 1019.50 1019.64 1019.87 1020.34 1020.72 1021.71 1022.33 1022.26 1022.28 1022.66 1022.16 1021.47 1021.16 1020.79 1020.43 1020.42 1020.15 1020.14 1020.44 1020.14 1020.60 1021.61 1023.49 1025.23 1026.16 1026.52 1026.80 1026.82 1026.75 1026.79 1026.80 1026.39
1015.45 1015.41 1015.25 1014.82 1014.66 1015.29 1017.14 1019.82 1020.70 1020.79 1020.81 1020.79 1020.83 1020.75 1020.94 1021.10 1021.20 1021.55 1022.44 1022.82 1022.66 1022.58 1022.85 1023.03 1022.93 1021.97 1021.39 1021.45 1021.58 1021.37 1021.62 1021.66 1021.39 1021.72 1022.82 1024.75 1026.07 1026.75 1027.16 1027.26 1027.27 1027.28 1027.35 1027.40 1027.09
1016.18 1016.29 1015.66 1015.20 1015.24 1016.98 1019.54 1020.65 1020.88 1021.04 1021.01 1021.09 1021.26 1021.48 1021.76 1022.04 1022.07 1022.31 1022.98 1023.00 1022.74 1022.60 1022.61 1023.20 1024.08 1023.33 1022.63 1023.70 1023.93 1023.36 1023.11 1023.24 1023.07 1023.07 1023.69 1025.74 1026.87 1027.36 1027.59 1027.70 1027.81 1027.75 1027.76 1027.86 1027.79
1017.29 1017.33 1016.03 1015.51 1017.46 1019.69 1020.72 1020.89 1021.12 1021.31 1021.35 1021.33 1021.51 1021.88 1022.10 1022.28 1022.45 1022.51 1022.73 1022.71 1022.61 1022.70 1022.99 1023.31 1024.14 1024.74 1025.05 1025.16 1025.40 1025.55 1025.57 1025.43 1025.12 1025.25 1025.38 1026.14 1027.91 1027.79 1027.88 1028.09 1028.22 1028.30 1028.23 1028.35 1028.07
1019.21 1018.95 1017.01 1016.64 1019.41 1020.90 1021.11 1021.26 1021.40 1021.52 1021.69 1021.73 1021.98 1022.28 1022.43 1022.72 1023.01 1022.84 1022.78 1022.64 1022.57 1022.70 1023.05 1023.35 1024.57 1025.76 1025.83 1026.13 1025.94 1026.39 1027.21 1027.35 1027.07 1026.93 1027.43 1027.71 1028.72 1028.43 1028.36 1028.58 1028.62 1028.68 1028.60 1028.69 1028.40
1020.42 1020.55 1020.08 1020.04 1020.86 1021.17 1021.36 1021.46 1021.60 1021.62 1021.86 1022.00 1022.30 1022.59 1022.92 1023.24 1023.37 1023.41 1023.18 1022.93 1022.85 1022.91 1022.98 1023.66 1024.72 1025.66 1026.24 1026.14 1026.30 1026.97 1027.60 1028.46 1028.37 1028.95 1028.98 1028.93 1029.08 1029.06 1029.06 1029.11 1029.09 1029.13 1028.88 1028.94 1028.55
1021.90 1023.16 1023.20 1022.42 1021.73 1021.69 1021.49 1021.50 1021.66 1021.87 1022.05 1022.29 1022.67 1023.06 1023.54 1023.98 1024.11 1024.10 1023.97 1023.65 1023.46 1023.66 1023.74 1024.32 1025.33 1025.53 1025.58 1025.54 1025.75 1026.37 1027.22 1028.08 1029.06 1029.58 1029.71 1029.59 1029.34 1029.15 1029.37 1029.60 1029.49 1029.29 1029.14 1028.94 1028.67
1023.13 1023.65 1023.26 1022.97 1022.38 1022.06 1021.77 1021.73 1021.81 1022.08 1022.31 1022.63 1022.94 1023.31 1023.64 1024.28 1024.70 1024.88 1024.81 1024.66 1024.68 1024.51 1024.78 1025.14 1025.70 1025.73 1025.69 1025.30 1025.38 1025.89 1026.67 1027.55 1028.50 1029.48 1029.67 1029.71 1029.79 1029.50 1029.70 1029.95 1029.96 1029.57 1029.27 1028.98 1028.70
1022.78 1023.13 1023.37 1022.90 1022.61 1022.44 1022.19 1021.94 1022.03 1022.26 1022.57 1022.66 1023.00 1023.42 1023.68 1024.01 1024.41 1024.69 1024.92 1025.13 1025.31 1025.47 1025.76 1026.12 1026.40 1026.62 1026.33 1025.61 1025.49 1025.86 1026.10 1026.73 1027.86 1028.60 1029.14 1029.34 1028.94 1029.20 1029.73 1029.68 1029.80 1029.79 1029.47 1029.22 1028.96
Wind_Speed
16 15 15 16 15 15 14 14 14 13 11 11 9 9 9 7 6 2 5 8 6 8 6 3 2 3 3 2 4 4 2 5 7 9 6 3 3 3 2 5 5 5 2 1 18
16 16 16 16 15 15 15 15 14 12 13 11 7 8 7 6 2 6 9 9 6 9 4 6 5 4 2 4 4 5 5 9 6 6 4 6 3 5 4 5 3 4 7 13 14
17 17 16 16 15 15 15 14 13 12 12 11 4 6 5 2 1 5 3 8 6 5 3 2 1 4 3 4 5 6 7 5 3 5 6 4 4 2 7 4 6 7 11 7 10
18 17 17 16 16 15 14 13 12 11 9 9 4 3 2 2 2 2 4 3 3 3 4 4 4 5 6 6 6 4 7 5 5 3 1 1 3 4 2 1 5 10 13 7 10
19 17 17 16 16 15 14 13 12 10 8 6 2 1 3 1 7 4 2 2 2 4 5 5 5 5 6 5 4 5 3 6 8 5 6 2 2 2 3 5 8 14 9 9 7
19 18 17 17 17 15 14 13 11 9 6 3 2 2 2 2 1 4 4 2 3 4 4 5 6 5 4 4 6 4 9 11 5 6 6 5 1 4 0 6 9 9 8 7 7
20 18 17 16 17 15 14 12 11 5 2 2 3 2 1 6 2 4 3 2 2 3 3 3 4 4 1 3 3 4 5 3 6 8 7 6 1 2 5 5 8 8 7 8 6
21 20 19 17 17 14 13 10 9 3 2 3 4 1 4 2 1 1 0 3 3 2 2 3 1 4 3 4 4 4 4 4 3 8 3 7 4 4 1 8 7 7 7 7 6
22 20 19 17 17 14 11 8 4 3 3 5 3 2 5 2 1 3 0 2 2 2 2 2 2 4 1 3 4 4 5 4 2 5 5 3 4 10 11 8 7 6 6 7 7
23 21 17 14 16 13 14 3 2 3 1 2 2 2 2 2 2 2 2 2 1 1 3 2 4 2 2 4 7 5 4 4 6 6 3 10 8 11 13 16 10 10 9 6 5
24 20 16 12 14 12 6 3 5 3 3 2 3 3 1 4 2 4 3 3 1 1 3 2 3 7 9 5 4 4 3 5 1 1 7 10 10 10 9 13 13 11 11 10 7
24 19 14 12 12 9 5 6 2 1 2 2 1 1 1 0 1 7 6 1 2 4 2 4 6 6 4 5 7 6 4 3 2 3 8 4 8 7 11 7 8 8 10 9 9
23 18 16 14 4 7 6 2 1 3 2 2 2 2 4 2 1 5 5 2 4 3 4 7 2 2 3 1 4 4 7 5 5 7 9 12 3 2 4 5 7 9 5 8 7
21 17 18 12 6 1 3 4 1 2 5 2 3 4 7 3 3 4 7 1 3 2 1 2 3 2 3 2 0 4 2 4 8 5 4 2 4 3 1 6 7 7 8 7 7
19 15 15 12 2 3 3 2 0 3 4 5 3 2 9 4 3 6 4 7 2 5 2 3 4 4 2 2 1 2 0 3 3 5 4 2 3 2 2 4 5 7 7 7 7
17 12 12 4 3 1 1 2 3 4 4 6 5 7 7 6 3 6 8 8 2 3 4 2 2 4 2 2 2 0 4 6 4 4 2 6 6 4 3 4 2 4 6 7 8
18 9 4 1 3 2 2 3 6 6 5 6 5 6 4 4 4 6 4 8 5 6 5 2 3 4 4 0 3 5 4 3 1 1 6 3 4 4 1 2 3 0 6 7 7
17 3 3 2 2 4 3 6 6 2 3 3 5 9 3 8 4 6 3 6 5 4 2 4 3 5 7 2 1 2 4 4 7 5 3 2 5 3 3 5 1 2 2 6 8
8 2 2 4 3 3 6 7 2 0 3 5 9 2 4 5 5 4 4 2 1 4 4 2 1 1 1 3 3 3 2 1 1 2 3 4 4 2 5 5 5 6 7 7 7
1 2 3 7 5 5 7 5 3 1 2 1 2 4 4 6 6 4 3 4 5 4 3 4 3 2 1 0 3 1 2 2 0 4 4 1 3 4 1 2 4 5 4 7 7
4 4 5 8 5 8 5 2 3 2 3 2 1 3 2 3 2 2 3 4 3 6 3 2 4 6 3 5 1 4 2 3 1 1 4 4 5 5 6 3 3 4 6 4 3
3 4 6 5 7 3 3 3 3 3 5 3 3 1 1 2 3 2 1 0 3 2 2 1 4 1 3 4 2 2 1 1 3 5 2 3 4 1 5 5 2 3 4 2 2
3 3 6 5 5 2 1 3 2 2 3 3 2 2 3 2 0 2 1 3 3 3 1 2 1 3 7 6 2 5 3 3 2 1 1 2 4 2 4 3 2 2 3 4 3
4 6 6 6 1 4 2 1 2 0 1 1 2 2 3 4 2 2 3 3 2 4 7 1 2 6 6 7 3 2 3 3 5 3 3 3 4 6 4 3 1 3 4 3 3
5 1 1 5 3 2 2 1 2 1 1 5 2 3 3 2 4 2 3 4 2 8 4 4 2 1 3 4 3 3 1 2 3 5 5 5 7 7 6 5 4 3 3 0 1
3 3 2 4 4 4 3 2 2 1 2 1 3 3 1 4 7 5 2 1 1 5 5 4 0 2 2 2 2 1 4 6 4 2 6 4 1 5 1 2 3 4 4 4 1
1 2 2 4 4 1 3 1 2 3 1 3 2 1 2 2 4 5 4 2 3 2 3 3 2 2 2 1 2 3 4 3 1 2 7 3 7 5 2 5 3 4 3 2 3
Wind_Direction
344 339 338 340 337 334 331 327 324 315 307 301 306 303 300 306 297 325 237 232 200 200 161 130 192 179 101 196 184 117 160 222 203 181 227 192 200 154 30 104 35 10 350 93 125
346 342 341 340 337 333 330 327 324 321 311 300 308 307 309 302 357 252 242 245 179 166 147 162 191 152 178 200 200 162 184 215 203 192 218 259 211 178 129 129 53 42 20 107 128
344 344 341 339 335 330 328 325 323 317 314 308 330 310 326 27 312 250 281 187 168 153 149 140 161 160 217 178 203 190 211 209 251 233 201 213 203 178 138 219 179 193 159 131 123
346 343 341 337 332 329 327 323 318 315 314 310 335 331 317 80 264 249 72 114 192 120 158 175 176 174 198 212 221 202 210 206 220 272 201 210 319 106 55 360 313 149 150 130 147
348 346 340 335 332 332 327 320 315 310 305 308 315 274 108 161 253 225 188 221 147 148 186 183 178 176 186 203 221 226 242 206 239 208 224 181 142 123 83 50 67 114 118 126 129
349 347 344 340 336 331 328 327 323 311 287 275 244 140 108 238 170 172 217 202 218 182 191 174 204 211 236 231 173 231 214 237 193 197 176 151 168 132 130 123 100 109 118 124 139
349 344 339 339 340 337 338 337 336 326 239 198 183 155 219 241 308 206 237 234 191 187 212 211 205 212 208 277 242 242 197 228 204 190 194 147 205 90 140 127 108 110 119 123 131
347 342 337 335 342 336 338 340 352 33 146 167 155 124 246 287 261 321 330 292 288 223 194 259 149 164 201 293 330 176 96 176 247 153 226 144 231 51 20 140 129 121 121 121 108
344 341 336 332 337 333 332 333 342 64 134 147 115 153 305 307 129 256 62 284 257 257 236 253 104 188 172 111 4 348 196 179 275 210 132 130 111 5 360 99 92 106 121 122 113
341 338 335 330 336 332 328 298 319 55 329 201 250 37 334 310 306 338 308 330 247 292 10 107 54 121 62 119 206 208 194 194 189 204 95 92 73 34 30 74 63 50 41 45 106
341 337 334 330 338 332 356 42 26 359 31 208 245 214 305 299 44 5 342 334 238 141 195 220 120 209 214 203 166 154 175 180 235 133 83 96 80 31 24 47 44 40 39 35 37
343 339 336 330 337 354 64 73 144 194 349 267 319 33 262 98 24 349 10 349 197 223 189 19 234 223 216 211 206 225 227 180 111 25 95 96 78 55 36 43 45 34 36 29 31
342 340 336 323 346 45 89 77 216 125 118 1 98 38 300 17 97 331 25 322 242 243 198 188 233 180 194 230 185 181 193 191 153 104 59 122 63 60 61 48 44 43 35 36 24
343 341 346 347 64 117 59 306 20 110 82 322 360 352 357 317 51 24 354 292 329 327 50 155 341 209 151 156 63 198 248 168 148 128 179 130 220 215 89 45 30 17 26 16 7
347 342 355 31 168 52 287 311 49 62 38 335 21 356 335 47 310 359 14 14 35 327 15 269 13 19 100 87 315 175 237 131 81 92 100 240 101 290 178 3 356 344 11 16 356
352 341 348 20 44 218 314 57 60 53 265 338 7 359 8 357 22 351 19 25 36 325 46 73 56 49 339 342 20 202 84 50 57 89 25 213 144 220 190 191 346 347 356 4 351
347 326 349 105 283 160 99 59 37 100 355 353 336 348 347 314 33 16 56 27 30 27 14 32 28 346 17 359 18 54 76 40 82 192 215 315 95 233 190 139 127 5 349 352 347
338 306 311 183 226 131 69 55 79 31 344 351 319 319 101 11 32 18 54 23 13 39 325 353 314 4 338 65 298 73 154 165 182 192 201 20 173 158 116 86 66 61 69 9 359
348 21 359 299 158 90 79 56 161 257 283 313 317 341 36 358 14 72 58 349 307 37 131 7 93 55 297 4 351 271 210 337 50 166 99 110 72 76 111 82 43 28 43 13 17
59 66 335 341 127 69 72 111 136 65 306 312 339 49 1 341 15 52 7 299 331 12 162 262 353 331 357 57 32 84 194 112 290 207 198 19 223 210 119 90 49 18 31 38 10
32 44 285 347 56 48 84 118 129 103 26 43 26 321 0 349 317 32 238 276 340 316 5 132 102 296 360 17 273 354 33 17 111 287 166 147 256 213 172 122 56 13 58 38 23
7 37 302 10 52 43 76 121 64 357 12 28 104 24 317 328 355 38 82 183 316 329 352 35 143 6 247 254 189 136 130 111 121 285 31 117 259 217 129 118 106 32 10 350 65
24 291 325 46 80 51 135 81 97 49 27 40 22 357 43 292 335 50 142 182 354 14 153 317 40 27 349 353 9 76 339 99 61 66 50 136 233 205 119 117 346 36 345 328 312
40 6 339 31 42 110 138 148 149 217 87 40 33 68 37 19 2 310 7 6 6 343 25 63 114 149 186 213 168 13 353 60 113 109 169 198 160 164 165 168 285 292 295 307 251
23 13 164 322 356 350 115 105 125 159 39 27 97 50 142 40 339 38 4 341 52 359 14 85 132 110 254 246 145 171 163 101 97 204 133 210 153 180 176 186 224 241 264 291 30
80 7 323 274 288 301 348 173 138 145 109 336 116 312 316 163 178 235 99 59 13 337 20 352 293 125 309 271 181 107 125 102 103 163 75 111 2 198 78 273 274 252 259 213 167
287 319 105 288 320 43 225 183 179 156 308 165 170 77 320 209 192 220 204 209 212 126 350 56 75 55 282 318 29 331 218 158 151 193 143 152 214 152 161 220 234 266 262 210 108